Weather History for Valparaiso, FL

Change the Weather History Date:

Wednesday, June 5, 2013

  Actual Average Record
Temperature  
Mean Temperature 81 °F -  
Max Temperature 88 °F 89 °F 99 °F (1985)
Min Temperature 75 °F 66 °F 52 °F (1954)
Cooling Degree Days 16    
Growing Degree Days 31 (Base 50)    
Moisture  
Dew Point 73 °F    
Average Humidity 77    
Maximum Humidity 90    
Minimum Humidity 59    
Precipitation  
Precipitation 0.01 in - - ()
Sea Level Pressure  
Sea Level Pressure 29.95 in    
Wind  
Wind Speed 9 mph (SE)    
Max Wind Speed 14 mph    
Max Gust Speed 21 mph    
Visibility 10 miles    
Events Rain    
Averages and records for this station are not official NWS values.
T = Trace of Precipitation, MM = Missing Value Source: NWS Daily Summary

Daily Weather History Graph

Daily Weather History Graph

Search for Another Location

Airport:

Trip Planner

Search our weather history database for the weather conditions in past years. The results will help you decide how hot, cold, wet, or windy it might be!

Date:

Astronomy

Jun. 05, 2013 Rise Set
Actual Time 5:43 AM CDT 7:45 PM CDT
Civil Twilight 5:16 AM CDT 8:13 PM CDT
Nautical Twilight 4:43 AM CDT 8:46 PM CDT
Astronomical Twilight 4:07 AM CDT 9:22 PM CDT
Moon 3:37 AM CDT (6/5) 5:19 PM CDT (6/5)
Length of Visible Light 14h 57m
Length of Day
14h 02m
Waning Crescent, 8% of the Moon is Illuminated
Jun 5
Waning Crescent
Jun 8
New
Jun 16
First Quarter
Jun 23
Full
Jun 29
Last Quarter

Hourly Weather History & Observations

Time (CDT) Temp. Heat Index Dew Point Humidity Pressure Visibility Wind Dir Wind Speed Gust Speed Precip Events Conditions
12:36 AM 78.8 °F - 73.4 °F 83% 29.97 in 10.0 mi South 11.5 mph - N/A   Mostly Cloudy
12:55 AM 79.2 °F - 73.2 °F 82% 29.98 in 10.0 mi South 10.4 mph - N/A   Mostly Cloudy
1:55 AM 78.8 °F - 73.6 °F 84% 29.98 in 10.0 mi SSW 8.1 mph - N/A   Mostly Cloudy
2:55 AM 78.8 °F - 73.4 °F 83% 29.97 in 10.0 mi SSE 6.9 mph - N/A   Mostly Cloudy
3:36 AM 78.8 °F - 73.4 °F 83% 29.95 in 10.0 mi SSE 6.9 mph - N/A   Scattered Clouds
3:55 AM 78.1 °F - 73.0 °F 84% 29.97 in 10.0 mi SSE 6.9 mph - N/A   Scattered Clouds
4:58 AM 77.9 °F - 73.4 °F 86% 29.97 in 10.0 mi SE 5.8 mph - N/A   Mostly Cloudy
5:17 AM 78.8 °F - 73.4 °F 83% 29.96 in 10.0 mi SE 6.9 mph - N/A   Mostly Cloudy
5:55 AM 77.7 °F - 72.5 °F 84% 29.98 in 10.0 mi NE 6.9 mph - N/A   Mostly Cloudy
6:55 AM 76.3 °F - 72.5 °F 88% 29.98 in 10.0 mi ENE 8.1 mph - N/A   Mostly Cloudy
7:06 AM 77.0 °F - 73.4 °F 89% 29.96 in 10.0 mi East 5.8 mph - N/A Rain Light Rain
7:15 AM 77.0 °F - 73.4 °F 89% 29.96 in 10.0 mi East 3.5 mph - N/A   Mostly Cloudy
7:55 AM 79.7 °F - 73.4 °F 81% 29.97 in 10.0 mi Calm Calm - 0.00 in   Scattered Clouds
8:55 AM 82.8 °F 88.4 °F 72.9 °F 72% 29.96 in 10.0 mi SSE 5.8 mph - N/A   Scattered Clouds
9:55 AM 85.1 °F 91.8 °F 73.0 °F 67% 29.97 in 10.0 mi SSE 12.7 mph - N/A   Scattered Clouds
10:55 AM 86.0 °F 93.0 °F 73.0 °F 65% 29.98 in 10.0 mi SE 11.5 mph - N/A   Scattered Clouds
11:55 AM 86.4 °F 93.8 °F 73.4 °F 65% 29.97 in 10.0 mi SE 13.8 mph - N/A   Scattered Clouds
12:55 PM 87.1 °F 94.1 °F 72.9 °F 62% 29.96 in 10.0 mi SE 11.5 mph 18.4 mph N/A   Scattered Clouds
1:55 PM 87.6 °F 94.3 °F 72.0 °F 60% 29.94 in 10.0 mi SSE 12.7 mph 20.7 mph N/A   Mostly Cloudy
2:55 PM 86.5 °F 91.8 °F 70.7 °F 59% 29.93 in 10.0 mi South 13.8 mph - N/A   Scattered Clouds
3:55 PM 86.7 °F 92.9 °F 72.0 °F 61% 29.91 in 10.0 mi SSE 13.8 mph - N/A   Scattered Clouds
4:55 PM 85.8 °F 90.8 °F 70.5 °F 60% 29.89 in 10.0 mi SSE 13.8 mph - N/A   Mostly Cloudy
5:55 PM 82.9 °F 87.7 °F 71.2 °F 68% 29.91 in 10.0 mi SSE 12.7 mph 18.4 mph N/A   Mostly Cloudy
6:55 PM 81.7 °F 86.5 °F 72.3 °F 73% 29.90 in 10.0 mi SSE 10.4 mph - N/A   Mostly Cloudy
7:34 PM 80.6 °F 84.6 °F 71.6 °F 74% 29.90 in 10.0 mi SSE 12.7 mph - N/A Rain Light Rain Showers
7:46 PM 80.6 °F 85.4 °F 73.4 °F 79% 29.90 in 10.0 mi SSE 12.7 mph - N/A   Mostly Cloudy
7:55 PM 79.5 °F - 73.0 °F 80% 29.91 in 10.0 mi SSE 9.2 mph - 0.01 in   Mostly Cloudy
8:55 PM 79.3 °F - 70.0 °F 73% 29.93 in 10.0 mi ESE 9.2 mph - N/A   Mostly Cloudy
9:55 PM 79.2 °F - 71.8 °F 78% 29.93 in 7.0 mi East 5.8 mph - N/A   Mostly Cloudy
10:55 PM 76.6 °F - 72.1 °F 86% 29.95 in 10.0 mi NNE 4.6 mph - N/A   Mostly Cloudy
11:48 PM 75.2 °F - 71.6 °F 89% 29.92 in 10.0 mi North 4.6 mph - N/A Rain Light Rain Showers
11:55 PM 75.2 °F - 72.0 °F 90% 29.93 in 10.0 mi NNE 4.6 mph - 0.00 in Rain Light Rain Showers